Location: Unspecified
(44.0704°N, 88.6889°W)
Time: 18:15:12
(UTC+02:00)

ISS - Pass Details

Date: 01 April 2019
Orbit: 408 x 410 km, 51.6° (Epoch: 22 April)

Event Time Altitude Azimuth Distance (km) Brightness Sun altitude
Rises 04:47:01 0° 302° (WNW) 2,338 1.4 -25.2°
Reaches altitude 10° 04:49:10 10° 310° (NW) 1,475 0.0 -25.6°
Enters shadow 04:50:54 26° 327° (NNW) 852 -1.6 -25.8°
